Tracking 17138 objects as of 3-July-2015
HD Live streaming from Space Station

MAQSAT H

Track MAQSAT H now!
10-day predictions
MAQSAT H is classified as:


NORAD ID: 25023
Int'l Code: 1997-066A
Perigee: 555.1 km
Apogee: 26,444.3 km
Inclination: 7.8 °
Period: 464.6 minutes
Semi major axis: 19870 km
RCS: 21.0323 m2 (large)
Launch date: October 30, 1997
Source: European Space Agency (ESA)
Your satellite tracking list
Your tracking list is empty





NASA's NSSDC Master Catalog

Two Line Element Set (TLE):
1 25023U 97066A   15181.66684721 -.00000086  00000-0  29518-3 0  9999
2 25023 007.7939 058.5519 6514412 064.3622 106.0053 03.09944528199679

Source of the keplerian elements: AFSPC

N2YO: 254